Year,Month,Day,Hour,Minute,Value (Times are PST for temperature in C)
2010,08,27,00,00,15.10
2010,08,27,00,01,15.10
2010,08,27,00,02,15.10
2010,08,27,00,03,15.10
2010,08,27,00,04,15.10
2010,08,27,00,05,15.10
2010,08,27,00,06,15.10
2010,08,27,00,07,15.10
2010,08,27,00,08,15.10
2010,08,27,00,09,15.10
2010,08,27,00,10,15.10
2010,08,27,00,11,15.10
2010,08,27,00,12,15.10
2010,08,27,00,13,15.10
2010,08,27,00,14,15.10
2010,08,27,00,15,15.10
2010,08,27,00,16,15.10
2010,08,27,00,17,15.10
2010,08,27,00,18,15.10
2010,08,27,00,19,15.10
2010,08,27,00,20,15.10
2010,08,27,00,21,15.00
2010,08,27,00,22,15.00
2010,08,27,00,23,15.00
2010,08,27,00,24,15.00
2010,08,27,00,25,15.00
2010,08,27,00,26,15.00
2010,08,27,00,27,15.00
2010,08,27,00,28,15.00
2010,08,27,00,29,15.00
2010,08,27,00,30,15.00
2010,08,27,00,31,15.00
2010,08,27,00,32,14.90
2010,08,27,00,33,14.90
2010,08,27,00,34,14.90
2010,08,27,00,35,14.90
2010,08,27,00,36,14.90
2010,08,27,00,37,14.90
2010,08,27,00,38,14.90
2010,08,27,00,39,14.80
2010,08,27,00,40,14.80
2010,08,27,00,41,14.80
2010,08,27,00,42,14.80
2010,08,27,00,43,14.80
2010,08,27,00,44,14.80
2010,08,27,00,45,14.80
2010,08,27,00,46,14.80
2010,08,27,00,47,14.80
2010,08,27,00,48,14.70
2010,08,27,00,49,14.70
2010,08,27,00,50,14.70
2010,08,27,00,51,14.70
2010,08,27,00,52,14.60
2010,08,27,00,53,14.60
2010,08,27,00,54,14.60
2010,08,27,00,55,14.60
2010,08,27,00,56,14.50
2010,08,27,00,57,14.50
2010,08,27,00,58,14.50
2010,08,27,00,59,14.50
2010,08,27,01,00,14.50
2010,08,27,01,01,14.40
2010,08,27,01,02,14.40
2010,08,27,01,03,14.40
2010,08,27,01,04,14.40
2010,08,27,01,05,14.50
2010,08,27,01,06,14.50
2010,08,27,01,07,14.40
2010,08,27,01,08,14.40
2010,08,27,01,09,14.40
2010,08,27,01,10,14.30
2010,08,27,01,11,14.30
2010,08,27,01,12,14.30
2010,08,27,01,13,14.30
2010,08,27,01,14,14.30
2010,08,27,01,15,14.30
2010,08,27,01,16,14.30
2010,08,27,01,17,14.30
2010,08,27,01,18,14.30
2010,08,27,01,19,14.30
2010,08,27,01,20,14.30
2010,08,27,01,21,14.30
2010,08,27,01,22,14.30
2010,08,27,01,23,14.30
2010,08,27,01,24,14.30
2010,08,27,01,25,14.30
2010,08,27,01,26,14.20
2010,08,27,01,27,14.20
2010,08,27,01,28,14.20
2010,08,27,01,29,14.10
2010,08,27,01,30,14.10
2010,08,27,01,31,14.10
2010,08,27,01,32,14.10
2010,08,27,01,33,14.10
2010,08,27,01,34,14.10
2010,08,27,01,35,14.10
2010,08,27,01,36,14.10
2010,08,27,01,37,14.10
2010,08,27,01,38,14.10
2010,08,27,01,39,14.00
2010,08,27,01,40,13.90
2010,08,27,01,41,13.90
2010,08,27,01,42,13.70
2010,08,27,01,43,13.60
2010,08,27,01,44,13.50
2010,08,27,01,45,13.40
2010,08,27,01,46,13.40
2010,08,27,01,47,13.30
2010,08,27,01,48,13.30
2010,08,27,01,49,13.20
2010,08,27,01,50,13.20
2010,08,27,01,51,13.20
2010,08,27,01,52,13.20
2010,08,27,01,53,13.10
2010,08,27,01,54,13.10
2010,08,27,01,55,13.00
2010,08,27,01,56,13.00
2010,08,27,01,57,12.90
2010,08,27,01,58,12.90
2010,08,27,01,59,12.90
2010,08,27,02,00,12.90
2010,08,27,02,01,12.90
2010,08,27,02,02,13.00
2010,08,27,02,03,13.00
2010,08,27,02,04,13.00
2010,08,27,02,05,13.00
2010,08,27,02,06,13.00
2010,08,27,02,07,13.00
2010,08,27,02,08,13.10
2010,08,27,02,09,13.10
2010,08,27,02,10,13.10
2010,08,27,02,11,13.10
2010,08,27,02,12,13.10
2010,08,27,02,13,13.10
2010,08,27,02,14,13.20
2010,08,27,02,15,13.20
2010,08,27,02,16,13.20
2010,08,27,02,17,13.30
2010,08,27,02,18,13.40
2010,08,27,02,19,13.40
2010,08,27,02,20,13.50
2010,08,27,02,21,13.50
2010,08,27,02,22,13.60
2010,08,27,02,23,13.60
2010,08,27,02,24,13.70
2010,08,27,02,25,13.70
2010,08,27,02,26,13.70
2010,08,27,02,27,13.70
2010,08,27,02,28,13.70
2010,08,27,02,29,13.80
2010,08,27,02,30,13.80
2010,08,27,02,31,13.80
2010,08,27,02,32,13.80
2010,08,27,02,33,13.80
2010,08,27,02,34,13.80
2010,08,27,02,35,13.80
2010,08,27,02,36,13.80
2010,08,27,02,37,13.80
2010,08,27,02,38,13.80
2010,08,27,02,39,13.90
2010,08,27,02,40,13.90
2010,08,27,02,41,13.90
2010,08,27,02,42,14.00
2010,08,27,02,43,14.00
2010,08,27,02,44,14.10
2010,08,27,02,45,14.10
2010,08,27,02,46,14.10
2010,08,27,02,47,14.10
2010,08,27,02,48,14.20
2010,08,27,02,49,14.20
2010,08,27,02,50,14.20
2010,08,27,02,51,14.20
2010,08,27,02,52,14.20
2010,08,27,02,53,14.20
2010,08,27,02,54,14.20
2010,08,27,02,55,14.20
2010,08,27,02,56,14.20
2010,08,27,02,57,14.20
2010,08,27,02,58,14.20
2010,08,27,02,59,14.10
2010,08,27,03,00,14.10
2010,08,27,03,01,14.00
2010,08,27,03,02,13.80
2010,08,27,03,03,13.70
2010,08,27,03,06,13.50
2010,08,27,03,07,13.40
2010,08,27,03,08,13.30
2010,08,27,03,09,13.20
2010,08,27,03,10,13.20
2010,08,27,03,11,13.20
2010,08,27,03,12,13.10
2010,08,27,03,13,13.10
2010,08,27,03,14,13.10
2010,08,27,03,15,13.10
2010,08,27,03,16,13.00
2010,08,27,03,17,13.00
2010,08,27,03,18,13.00
2010,08,27,03,19,12.90
2010,08,27,03,20,12.90
2010,08,27,03,21,12.90
2010,08,27,03,22,12.90
2010,08,27,03,23,12.90
2010,08,27,03,24,12.90
2010,08,27,03,25,12.80
2010,08,27,03,26,12.80
2010,08,27,03,27,12.80
2010,08,27,03,28,12.80
2010,08,27,03,29,12.70
2010,08,27,03,30,12.70
2010,08,27,03,31,12.70
2010,08,27,03,32,12.80
2010,08,27,03,33,12.90
2010,08,27,03,34,13.00
2010,08,27,03,35,13.10
2010,08,27,03,36,13.10
2010,08,27,03,37,13.20
2010,08,27,03,38,13.20
2010,08,27,03,39,13.20
2010,08,27,03,40,13.20
2010,08,27,03,41,13.10
2010,08,27,03,42,13.10
2010,08,27,03,43,13.00
2010,08,27,03,44,12.90
2010,08,27,03,45,12.80
2010,08,27,03,46,12.80
2010,08,27,03,47,12.90
2010,08,27,03,48,13.10
2010,08,27,03,49,13.20
2010,08,27,03,50,13.30
2010,08,27,03,51,13.30
2010,08,27,03,52,13.50
2010,08,27,03,53,13.50
2010,08,27,03,54,13.60
2010,08,27,03,55,13.70
2010,08,27,03,56,13.70
2010,08,27,03,57,13.70
2010,08,27,03,58,13.60
2010,08,27,03,59,13.60
2010,08,27,04,00,13.50
2010,08,27,04,01,13.50
2010,08,27,04,02,13.50
2010,08,27,04,03,13.50
2010,08,27,04,04,13.30
2010,08,27,04,05,13.30
2010,08,27,04,06,13.20
2010,08,27,04,07,13.10
2010,08,27,04,08,13.00
2010,08,27,04,09,13.00
2010,08,27,04,10,12.90
2010,08,27,04,11,12.80
2010,08,27,04,12,12.80
2010,08,27,04,13,12.70
2010,08,27,04,14,12.60
2010,08,27,04,15,12.60
2010,08,27,04,16,12.60
2010,08,27,04,17,12.50
2010,08,27,04,18,12.50
2010,08,27,04,19,12.50
2010,08,27,04,20,12.50
2010,08,27,04,21,12.40
2010,08,27,04,22,12.40
2010,08,27,04,23,12.40
2010,08,27,04,24,12.40
2010,08,27,04,25,12.50
2010,08,27,04,26,12.50
2010,08,27,04,27,12.50
2010,08,27,04,28,12.40
2010,08,27,04,29,12.40
2010,08,27,04,30,12.40
2010,08,27,04,31,12.30
2010,08,27,04,32,12.30
2010,08,27,04,33,12.20
2010,08,27,04,34,12.20
2010,08,27,04,35,12.20
2010,08,27,04,36,12.10
2010,08,27,04,37,12.00
2010,08,27,04,38,12.00
2010,08,27,04,39,11.90
2010,08,27,04,40,11.90
2010,08,27,04,41,11.90
2010,08,27,04,42,11.80
2010,08,27,04,43,11.80
2010,08,27,04,44,11.70
2010,08,27,04,45,11.70
2010,08,27,04,46,11.60
2010,08,27,04,47,11.60
2010,08,27,04,48,11.50
2010,08,27,04,49,11.40
2010,08,27,04,50,11.40
2010,08,27,04,51,11.40
2010,08,27,04,52,11.40
2010,08,27,04,53,11.40
2010,08,27,04,54,11.40
2010,08,27,04,55,11.40
2010,08,27,04,56,11.40
2010,08,27,04,57,11.40
2010,08,27,04,58,11.40
2010,08,27,04,59,11.40
2010,08,27,05,00,11.40
2010,08,27,05,01,11.40
2010,08,27,05,02,11.40
2010,08,27,05,03,11.40
2010,08,27,05,04,11.40
2010,08,27,05,05,11.40
2010,08,27,05,06,11.40
2010,08,27,05,07,11.50
2010,08,27,05,08,11.50
2010,08,27,05,09,11.50
2010,08,27,05,10,11.50
2010,08,27,05,11,11.50
2010,08,27,05,12,11.50
2010,08,27,05,13,11.50
2010,08,27,05,14,11.50
2010,08,27,05,15,11.50
2010,08,27,05,16,11.50
2010,08,27,05,17,11.50
2010,08,27,05,18,11.50
2010,08,27,05,19,11.50
2010,08,27,05,20,11.40
2010,08,27,05,21,11.40
2010,08,27,05,22,11.40
2010,08,27,05,23,11.30
2010,08,27,05,24,11.30
2010,08,27,05,25,11.30
2010,08,27,05,26,11.20
2010,08,27,05,27,11.20
2010,08,27,05,28,11.20
2010,08,27,05,29,11.20
2010,08,27,05,30,11.20
2010,08,27,05,31,11.20
2010,08,27,05,32,11.20
2010,08,27,05,33,11.10
2010,08,27,05,34,11.10
2010,08,27,05,35,11.10
2010,08,27,05,36,11.10
2010,08,27,05,37,11.20
2010,08,27,05,38,11.20
2010,08,27,05,39,11.20
2010,08,27,05,40,11.20
2010,08,27,05,41,11.20
2010,08,27,05,42,11.20
2010,08,27,05,43,11.10
2010,08,27,05,44,11.10
2010,08,27,05,45,11.10
2010,08,27,05,46,11.10
2010,08,27,05,47,11.00
2010,08,27,05,48,11.10
2010,08,27,05,49,11.10
2010,08,27,05,50,11.10
2010,08,27,05,51,11.20
2010,08,27,05,52,11.20
2010,08,27,05,53,11.20
2010,08,27,05,54,11.20
2010,08,27,05,55,11.10
2010,08,27,05,56,11.10
2010,08,27,05,57,11.10
2010,08,27,05,58,11.00
2010,08,27,05,59,11.00
2010,08,27,06,00,11.00
2010,08,27,06,01,11.00
2010,08,27,06,02,11.00
2010,08,27,06,03,10.90
2010,08,27,06,04,10.90
2010,08,27,06,05,10.90
2010,08,27,06,06,10.90
2010,08,27,06,07,10.90
2010,08,27,06,08,10.90
2010,08,27,06,09,10.90
2010,08,27,06,10,10.90
2010,08,27,06,11,10.90
2010,08,27,06,12,10.90
2010,08,27,06,13,10.90
2010,08,27,06,14,10.90
2010,08,27,06,15,10.90
2010,08,27,06,16,10.90
2010,08,27,06,17,10.80
2010,08,27,06,18,10.80
2010,08,27,06,19,10.80
2010,08,27,06,20,10.80
2010,08,27,06,21,10.80
2010,08,27,06,22,10.80
2010,08,27,06,23,10.80
2010,08,27,06,24,10.80
2010,08,27,06,25,10.80
2010,08,27,06,26,10.80
2010,08,27,06,27,10.80
2010,08,27,06,28,10.80
2010,08,27,06,29,10.80
2010,08,27,06,30,10.80
2010,08,27,06,31,10.80
2010,08,27,06,32,10.80
2010,08,27,06,33,10.80
2010,08,27,06,34,10.80
2010,08,27,06,35,10.80
2010,08,27,06,36,10.80
2010,08,27,06,37,10.80
2010,08,27,06,38,10.80
2010,08,27,06,39,10.80
2010,08,27,06,40,10.80
2010,08,27,06,41,10.80
2010,08,27,06,42,10.90
2010,08,27,06,43,10.90
2010,08,27,06,44,10.90
2010,08,27,06,45,11.00
2010,08,27,06,46,11.00
2010,08,27,06,47,11.00
2010,08,27,06,48,11.00
2010,08,27,06,49,11.00
2010,08,27,06,50,11.10
2010,08,27,06,51,11.10
2010,08,27,06,52,11.10
2010,08,27,06,53,11.10
2010,08,27,06,54,11.10
2010,08,27,06,55,11.10
2010,08,27,06,56,11.10
2010,08,27,06,57,11.20
2010,08,27,06,58,11.20
2010,08,27,06,59,11.20
2010,08,27,07,00,11.20
2010,08,27,07,01,11.20
2010,08,27,07,02,11.20
2010,08,27,07,03,11.30
2010,08,27,07,04,11.30
2010,08,27,07,05,11.30
2010,08,27,07,06,11.30
2010,08,27,07,07,11.30
2010,08,27,07,08,11.30
2010,08,27,07,09,11.30
2010,08,27,07,10,11.30
2010,08,27,07,11,11.30
2010,08,27,07,12,11.30
2010,08,27,07,13,11.40
2010,08,27,07,14,11.40
2010,08,27,07,15,11.40
2010,08,27,07,16,11.40
2010,08,27,07,17,11.40
2010,08,27,07,18,11.40
2010,08,27,07,19,11.40
2010,08,27,07,20,11.40
2010,08,27,07,21,11.40
2010,08,27,07,22,11.40
2010,08,27,07,23,11.40
2010,08,27,07,24,11.40
2010,08,27,07,25,11.50
2010,08,27,07,26,11.60
2010,08,27,07,27,11.70
2010,08,27,07,28,11.70
2010,08,27,07,29,11.70
2010,08,27,07,30,11.70
2010,08,27,07,31,11.70
2010,08,27,07,32,11.70
2010,08,27,07,33,11.70
2010,08,27,07,34,11.70
2010,08,27,07,35,11.70
2010,08,27,07,36,11.70
2010,08,27,07,37,11.70
2010,08,27,07,38,11.70
2010,08,27,07,39,11.70
2010,08,27,07,40,11.70
2010,08,27,07,41,11.70
2010,08,27,07,42,11.70
2010,08,27,07,43,11.70
2010,08,27,07,44,11.80
2010,08,27,07,45,11.80
2010,08,27,07,46,11.90
2010,08,27,07,47,12.00
2010,08,27,07,48,12.00
2010,08,27,07,49,12.10
2010,08,27,07,50,12.20
2010,08,27,07,51,12.20
2010,08,27,07,52,12.20
2010,08,27,07,53,12.20
2010,08,27,07,54,12.20
2010,08,27,07,55,12.20
2010,08,27,07,56,12.20
2010,08,27,07,57,12.30
2010,08,27,07,58,12.30
2010,08,27,07,59,12.30
2010,08,27,08,00,12.30
2010,08,27,08,01,12.30
2010,08,27,08,02,12.30
2010,08,27,08,03,12.30
2010,08,27,08,04,12.30
2010,08,27,08,05,12.30
2010,08,27,08,06,12.30
2010,08,27,08,07,12.30
2010,08,27,08,08,12.30
2010,08,27,08,09,12.30
2010,08,27,08,10,12.30
2010,08,27,08,11,12.30
2010,08,27,08,12,12.30
2010,08,27,08,13,12.30
2010,08,27,08,14,12.30
2010,08,27,08,15,12.30
2010,08,27,08,16,12.30
2010,08,27,08,17,12.40
2010,08,27,08,18,12.40
2010,08,27,08,19,12.40
2010,08,27,08,20,12.40
2010,08,27,08,21,12.40
2010,08,27,08,22,12.50
2010,08,27,08,23,12.50
2010,08,27,08,24,12.60
2010,08,27,08,25,12.60
2010,08,27,08,26,12.70
2010,08,27,08,27,12.70
2010,08,27,08,28,12.80
2010,08,27,08,29,12.90
2010,08,27,08,30,12.90
2010,08,27,08,31,13.00
2010,08,27,08,32,13.00
2010,08,27,08,33,13.00
2010,08,27,08,34,13.00
2010,08,27,08,35,13.00
2010,08,27,08,36,13.10
2010,08,27,08,37,13.10
2010,08,27,08,38,13.10
2010,08,27,08,39,13.10
2010,08,27,08,40,13.10
2010,08,27,08,41,13.20
2010,08,27,08,42,13.20
2010,08,27,08,43,13.20
2010,08,27,08,44,13.30
2010,08,27,08,45,13.30
2010,08,27,08,46,13.30
2010,08,27,08,47,13.40
2010,08,27,08,48,13.50
2010,08,27,08,49,13.60
2010,08,27,08,50,13.70
2010,08,27,08,51,13.80
2010,08,27,08,52,13.80
2010,08,27,08,53,13.80
2010,08,27,08,54,13.80
2010,08,27,08,55,13.90
2010,08,27,08,56,13.90
2010,08,27,08,57,13.90
2010,08,27,08,58,14.00
2010,08,27,08,59,14.00
2010,08,27,09,00,14.10
2010,08,27,09,01,14.10
2010,08,27,09,02,14.20
2010,08,27,09,03,14.20
2010,08,27,09,04,14.30
2010,08,27,09,05,14.40
2010,08,27,09,06,14.40
2010,08,27,09,07,14.50
2010,08,27,09,08,14.50
2010,08,27,09,09,14.60
2010,08,27,09,10,14.60
2010,08,27,09,11,14.60
2010,08,27,09,12,14.70
2010,08,27,09,13,14.70
2010,08,27,09,14,14.70
2010,08,27,09,15,14.70
2010,08,27,09,16,14.70
2010,08,27,09,17,14.80
2010,08,27,09,18,14.80
2010,08,27,09,19,14.80
2010,08,27,09,20,14.80
2010,08,27,09,21,14.80
2010,08,27,09,22,14.90
2010,08,27,09,23,14.90
2010,08,27,09,24,14.90
2010,08,27,09,25,15.00
2010,08,27,09,26,15.00
2010,08,27,09,27,15.00
2010,08,27,09,28,15.00
2010,08,27,09,29,15.10
2010,08,27,09,30,15.10
2010,08,27,09,31,15.10
2010,08,27,09,32,15.10
2010,08,27,09,33,15.10
2010,08,27,09,34,15.20
2010,08,27,09,35,15.20
2010,08,27,09,36,15.30
2010,08,27,09,37,15.30
2010,08,27,09,38,15.40
2010,08,27,09,39,15.40
2010,08,27,09,40,15.50
2010,08,27,09,41,15.60
2010,08,27,09,42,15.70
2010,08,27,09,43,15.70
2010,08,27,09,44,15.80
2010,08,27,09,45,15.80
2010,08,27,09,46,15.90
2010,08,27,09,47,15.90
2010,08,27,09,48,15.90
2010,08,27,09,49,15.90
2010,08,27,09,50,16.00
2010,08,27,09,51,16.00
2010,08,27,09,52,16.10
2010,08,27,09,53,16.10
2010,08,27,09,54,16.10
2010,08,27,09,55,16.20
2010,08,27,09,56,16.20
2010,08,27,09,57,16.20
2010,08,27,09,58,16.20
2010,08,27,09,59,16.30
2010,08,27,10,00,16.30
2010,08,27,10,01,16.40
2010,08,27,10,02,16.50
2010,08,27,10,03,16.60
2010,08,27,10,04,16.70
2010,08,27,10,05,16.80
2010,08,27,10,06,16.80
2010,08,27,10,07,16.80
2010,08,27,10,08,16.80
2010,08,27,10,09,16.90
2010,08,27,10,10,16.90
2010,08,27,10,11,16.90
2010,08,27,10,12,16.90
2010,08,27,10,13,16.90
2010,08,27,10,14,17.00
2010,08,27,10,15,17.10
2010,08,27,10,16,17.10
2010,08,27,10,17,17.20
2010,08,27,10,18,17.20
2010,08,27,10,19,17.20
2010,08,27,10,20,17.30
2010,08,27,10,21,17.30
2010,08,27,10,22,17.30
2010,08,27,10,23,17.40
2010,08,27,10,24,17.40
2010,08,27,10,25,17.50
2010,08,27,10,26,17.50
2010,08,27,10,27,17.60
2010,08,27,10,28,17.60
2010,08,27,10,29,17.60
2010,08,27,10,30,17.60
2010,08,27,10,31,17.60
2010,08,27,10,32,17.60
2010,08,27,10,33,17.50
2010,08,27,10,34,17.40
2010,08,27,10,35,17.30
2010,08,27,10,36,17.30
2010,08,27,10,37,17.30
2010,08,27,10,38,17.30
2010,08,27,10,39,17.20
2010,08,27,10,40,17.20
2010,08,27,10,41,17.10
2010,08,27,10,42,17.00
2010,08,27,10,43,17.00
2010,08,27,10,44,16.90
2010,08,27,10,45,16.90
2010,08,27,10,46,16.90
2010,08,27,10,47,16.90
2010,08,27,10,48,16.90
2010,08,27,10,49,16.90
2010,08,27,10,50,16.90
2010,08,27,10,51,16.90
2010,08,27,10,52,16.90
2010,08,27,10,53,16.90
2010,08,27,10,54,16.90
2010,08,27,10,55,16.90
2010,08,27,10,56,16.90
2010,08,27,10,57,16.90
2010,08,27,10,58,17.00
2010,08,27,10,59,17.10
2010,08,27,11,00,17.10
2010,08,27,11,01,17.10
2010,08,27,11,02,17.00
2010,08,27,11,03,17.00
2010,08,27,11,04,17.00
2010,08,27,11,05,17.10
2010,08,27,11,06,17.10
2010,08,27,11,07,17.10
2010,08,27,11,08,17.20
2010,08,27,11,09,17.20
2010,08,27,11,10,17.30
2010,08,27,11,11,17.30
2010,08,27,11,12,17.30
2010,08,27,11,13,17.30
2010,08,27,11,14,17.30
2010,08,27,11,15,17.30
2010,08,27,11,16,17.30
2010,08,27,11,17,17.20
2010,08,27,11,18,17.30
2010,08,27,11,19,17.30
2010,08,27,11,20,17.30
2010,08,27,11,21,17.40
2010,08,27,11,22,17.50
2010,08,27,11,23,17.60
2010,08,27,11,24,17.70
2010,08,27,11,25,17.70
2010,08,27,11,26,17.80
2010,08,27,11,27,17.80
2010,08,27,11,28,17.80
2010,08,27,11,29,17.80
2010,08,27,11,30,17.80
2010,08,27,11,31,17.80
2010,08,27,11,32,17.80
2010,08,27,11,33,17.80
2010,08,27,11,34,17.70
2010,08,27,11,35,17.70
2010,08,27,11,36,17.80
2010,08,27,11,37,17.80
2010,08,27,11,38,17.80
2010,08,27,11,39,17.70
2010,08,27,11,40,17.70
2010,08,27,11,41,17.70
2010,08,27,11,42,17.70
2010,08,27,11,43,17.70
2010,08,27,11,44,17.70
2010,08,27,11,45,17.80
2010,08,27,11,46,17.80
2010,08,27,11,47,17.80
2010,08,27,11,48,17.80
2010,08,27,11,49,17.90
2010,08,27,11,50,17.90
2010,08,27,11,51,18.00
2010,08,27,11,52,18.00
2010,08,27,11,53,18.00
2010,08,27,11,54,18.00
2010,08,27,11,55,18.10
2010,08,27,11,56,18.10
2010,08,27,11,57,18.10
2010,08,27,11,58,18.20
2010,08,27,11,59,18.20
2010,08,27,12,00,18.30
2010,08,27,12,01,18.40
2010,08,27,12,02,18.50
2010,08,27,12,03,18.60
2010,08,27,12,04,18.60
2010,08,27,12,05,18.60
2010,08,27,12,06,18.60
2010,08,27,12,07,18.60
2010,08,27,12,08,18.60
2010,08,27,12,09,18.50
2010,08,27,12,10,18.50
2010,08,27,12,11,18.50
2010,08,27,12,12,18.50
2010,08,27,12,13,18.50
2010,08,27,12,14,18.60
2010,08,27,12,15,18.70
2010,08,27,12,16,18.70
2010,08,27,12,17,18.60
2010,08,27,12,18,18.60
2010,08,27,12,19,18.60
2010,08,27,12,20,18.60
2010,08,27,12,21,18.60
2010,08,27,12,22,18.50
2010,08,27,12,23,18.50
2010,08,27,12,24,18.40
2010,08,27,12,25,18.40
2010,08,27,12,26,18.40
2010,08,27,12,27,18.30
2010,08,27,12,28,18.20
2010,08,27,12,29,18.20
2010,08,27,12,30,18.20
2010,08,27,12,31,18.10
2010,08,27,12,32,18.10
2010,08,27,12,33,18.10
2010,08,27,12,34,18.10
2010,08,27,12,35,18.10
2010,08,27,12,36,18.10
2010,08,27,12,37,18.10
2010,08,27,12,38,18.10
2010,08,27,12,39,18.10
2010,08,27,12,40,18.00
2010,08,27,12,41,18.00
2010,08,27,12,42,18.00
2010,08,27,12,43,18.00
2010,08,27,12,44,18.10
2010,08,27,12,45,18.10
2010,08,27,12,46,18.20
2010,08,27,12,47,18.30
2010,08,27,12,48,18.40
2010,08,27,12,49,18.50
2010,08,27,12,50,18.60
2010,08,27,12,51,18.70
2010,08,27,12,52,18.80
2010,08,27,12,53,18.90
2010,08,27,12,54,18.90
2010,08,27,12,55,18.80
2010,08,27,12,56,18.80
2010,08,27,12,57,18.80
2010,08,27,12,58,18.80
2010,08,27,12,59,18.80
2010,08,27,13,00,18.70
2010,08,27,13,01,18.70
2010,08,27,13,02,18.70
2010,08,27,13,03,18.80
2010,08,27,13,04,18.90
2010,08,27,13,05,18.90
2010,08,27,13,06,19.00
2010,08,27,13,07,19.00
2010,08,27,13,08,19.10
2010,08,27,13,09,19.20
2010,08,27,13,10,19.20
2010,08,27,13,11,19.30
2010,08,27,13,12,19.40
2010,08,27,13,13,19.40
2010,08,27,13,14,19.40
2010,08,27,13,15,19.40
2010,08,27,13,16,19.50
2010,08,27,13,17,19.70
2010,08,27,13,18,19.80
2010,08,27,13,19,19.70
2010,08,27,13,20,19.60
2010,08,27,13,21,19.40
2010,08,27,13,22,19.30
2010,08,27,13,23,19.30
2010,08,27,13,24,19.30
2010,08,27,13,25,19.40
2010,08,27,13,26,19.40
2010,08,27,13,27,19.50
2010,08,27,13,28,19.50
2010,08,27,13,29,19.60
2010,08,27,13,30,19.70
2010,08,27,13,31,19.60
2010,08,27,13,32,19.70
2010,08,27,13,33,19.70
2010,08,27,13,34,19.60
2010,08,27,13,35,19.50
2010,08,27,13,36,19.40
2010,08,27,13,37,19.40
2010,08,27,13,38,19.40
2010,08,27,13,39,19.50
2010,08,27,13,40,19.60
2010,08,27,13,41,19.60
2010,08,27,13,42,19.70
2010,08,27,13,43,19.70
2010,08,27,13,44,19.60
2010,08,27,13,45,19.60
2010,08,27,13,46,19.60
2010,08,27,13,47,19.60
2010,08,27,13,48,19.60
2010,08,27,13,49,19.60
2010,08,27,13,50,19.60
2010,08,27,13,51,19.50
2010,08,27,13,52,19.40
2010,08,27,13,53,19.30
2010,08,27,13,54,19.20
2010,08,27,13,55,19.20
2010,08,27,13,56,19.10
2010,08,27,13,57,19.10
2010,08,27,13,58,19.10
2010,08,27,13,59,19.20
2010,08,27,14,00,19.20
2010,08,27,14,01,19.20
2010,08,27,14,02,19.10
2010,08,27,14,03,19.00
2010,08,27,14,04,19.00
2010,08,27,14,05,18.90
2010,08,27,14,06,18.90
2010,08,27,14,07,18.80
2010,08,27,14,08,18.70
2010,08,27,14,09,18.70
2010,08,27,14,10,18.60
2010,08,27,14,11,18.50
2010,08,27,14,12,18.50
2010,08,27,14,13,18.40
2010,08,27,14,14,18.30
2010,08,27,14,15,18.30
2010,08,27,14,16,18.20
2010,08,27,14,17,18.20
2010,08,27,14,18,18.20
2010,08,27,14,19,18.10
2010,08,27,14,20,18.10
2010,08,27,14,21,18.20
2010,08,27,14,22,18.20
2010,08,27,14,23,18.20
2010,08,27,14,24,18.20
2010,08,27,14,25,18.20
2010,08,27,14,26,18.20
2010,08,27,14,27,18.30
2010,08,27,14,28,18.30
2010,08,27,14,29,18.30
2010,08,27,14,30,18.30
2010,08,27,14,31,18.30
2010,08,27,14,32,18.30
2010,08,27,14,33,18.30
2010,08,27,14,34,18.30
2010,08,27,14,35,18.30
2010,08,27,14,36,18.20
2010,08,27,14,37,18.20
2010,08,27,14,38,18.20
2010,08,27,14,39,18.20
2010,08,27,14,40,18.10
2010,08,27,14,41,18.10
2010,08,27,14,42,18.10
2010,08,27,14,43,18.10
2010,08,27,14,44,18.00
2010,08,27,14,45,18.00
2010,08,27,14,46,18.00
2010,08,27,14,47,17.90
2010,08,27,14,48,17.90
2010,08,27,14,49,17.90
2010,08,27,14,50,17.90
2010,08,27,14,51,17.90
2010,08,27,14,52,17.90
2010,08,27,14,53,17.90
2010,08,27,14,54,17.90
2010,08,27,14,55,17.90
2010,08,27,14,56,18.00
2010,08,27,14,57,18.00
2010,08,27,14,58,18.00
2010,08,27,14,59,18.00
2010,08,27,15,00,18.10
2010,08,27,15,01,18.10
2010,08,27,15,02,18.10
2010,08,27,15,03,18.10
2010,08,27,15,04,18.10
2010,08,27,15,05,18.20
2010,08,27,15,06,18.20
2010,08,27,15,07,18.20
2010,08,27,15,08,18.30
2010,08,27,15,09,18.30
2010,08,27,15,10,18.40
2010,08,27,15,11,18.40
2010,08,27,15,12,18.50
2010,08,27,15,13,18.50
2010,08,27,15,14,18.40
2010,08,27,15,15,18.40
2010,08,27,15,16,18.30
2010,08,27,15,17,18.20
2010,08,27,15,18,18.20
2010,08,27,15,19,18.20
2010,08,27,15,20,18.20
2010,08,27,15,21,18.20
2010,08,27,15,22,18.20
2010,08,27,15,23,18.20
2010,08,27,15,24,18.30
2010,08,27,15,25,18.30
2010,08,27,15,26,18.30
2010,08,27,15,27,18.40
2010,08,27,15,28,18.40
2010,08,27,15,29,18.40
2010,08,27,15,30,18.40
2010,08,27,15,31,18.40
2010,08,27,15,32,18.40
2010,08,27,15,33,18.40
2010,08,27,15,34,18.40
2010,08,27,15,35,18.40
2010,08,27,15,36,18.40
2010,08,27,15,37,18.40
2010,08,27,15,38,18.40
2010,08,27,15,39,18.40
2010,08,27,15,40,18.50
2010,08,27,15,41,18.50
2010,08,27,15,42,18.50
2010,08,27,15,43,18.50
2010,08,27,15,44,18.50
2010,08,27,15,45,18.40
2010,08,27,15,46,18.30
2010,08,27,15,47,18.20
2010,08,27,15,48,18.00
2010,08,27,15,49,17.90
2010,08,27,15,50,17.80
2010,08,27,15,51,17.60
2010,08,27,15,52,17.50
2010,08,27,15,53,17.40
2010,08,27,15,54,17.30
2010,08,27,15,55,17.30
2010,08,27,15,56,17.40
2010,08,27,15,57,17.50
2010,08,27,15,58,17.60
2010,08,27,15,59,17.70
2010,08,27,16,00,17.70
2010,08,27,16,01,17.80
2010,08,27,16,02,17.80
2010,08,27,16,03,17.90
2010,08,27,16,04,17.90
2010,08,27,16,05,17.80
2010,08,27,16,06,17.80
2010,08,27,16,07,17.70
2010,08,27,16,08,17.60
2010,08,27,16,09,17.60
2010,08,27,16,10,17.70
2010,08,27,16,11,17.70
2010,08,27,16,12,17.80
2010,08,27,16,13,17.70
2010,08,27,16,14,17.60
2010,08,27,16,15,17.50
2010,08,27,16,16,17.60
2010,08,27,16,17,17.60
2010,08,27,16,18,17.60
2010,08,27,16,19,17.70
2010,08,27,16,20,17.70
2010,08,27,16,21,17.80
2010,08,27,16,22,17.90
2010,08,27,16,23,18.00
2010,08,27,16,24,18.10
2010,08,27,16,25,18.10
2010,08,27,16,26,18.00
2010,08,27,16,27,17.90
2010,08,27,16,28,17.80
2010,08,27,16,29,17.90
2010,08,27,16,30,17.90
2010,08,27,16,31,17.90
2010,08,27,16,32,17.90
2010,08,27,16,33,17.80
2010,08,27,16,34,17.70
2010,08,27,16,35,17.60
2010,08,27,16,36,17.50
2010,08,27,16,37,17.40
2010,08,27,16,38,17.50
2010,08,27,16,39,17.50
2010,08,27,16,40,17.60
2010,08,27,16,41,17.70
2010,08,27,16,42,17.80
2010,08,27,16,43,17.90
2010,08,27,16,44,18.00
2010,08,27,16,45,18.10
2010,08,27,16,46,18.20
2010,08,27,16,47,18.10
2010,08,27,16,48,18.10
2010,08,27,16,49,18.20
2010,08,27,16,50,18.30
2010,08,27,16,51,18.30
2010,08,27,16,52,18.20
2010,08,27,16,53,18.10
2010,08,27,16,54,18.10
2010,08,27,16,55,18.10
2010,08,27,16,56,18.00
2010,08,27,16,57,18.00
2010,08,27,16,58,17.90
2010,08,27,16,59,17.80
2010,08,27,17,00,17.80
2010,08,27,17,01,17.70
2010,08,27,17,02,17.70
2010,08,27,17,03,17.70
2010,08,27,17,04,17.80
2010,08,27,17,05,17.80
2010,08,27,17,06,17.80
2010,08,27,17,07,17.80
2010,08,27,17,08,17.90
2010,08,27,17,09,17.90
2010,08,27,17,10,17.90
2010,08,27,17,11,17.90
2010,08,27,17,12,18.00
2010,08,27,17,13,18.00
2010,08,27,17,14,18.00
2010,08,27,17,15,18.00
2010,08,27,17,16,18.00
2010,08,27,17,17,18.10
2010,08,27,17,18,18.20
2010,08,27,17,19,18.30
2010,08,27,17,20,18.30
2010,08,27,17,21,18.30